Weather History for Altus, OK

Change the Weather History Date:

Saturday, July 26, 2014

  Actual Average (KLTS) Record (KLTS)
Temperature  
Mean Temperature 86 °F -  
Max Temperature 101 °F 96 °F 110 °F (2011)
Min Temperature 71 °F 71 °F 60 °F (2004)
Cooling Degree Days 21    
Growing Degree Days 36 (Base 50)    
Moisture  
Dew Point 61 °F    
Average Humidity 44    
Maximum Humidity 76    
Minimum Humidity 23    
Precipitation  
Precipitation 0.00 in - - ()
Sea Level Pressure  
Sea Level Pressure 29.94 in    
Wind  
Wind Speed 10 mph (SSE)    
Max Wind Speed 20 mph    
Max Gust Speed 22 mph    
Visibility 10 miles    
Events      
Averages and records for this station are not official NWS values.
T = Trace of Precipitation, MM = Missing Value Source: NWS Daily Summary

Daily Weather History Graph

Daily Weather History Graph

Search for Another Location

Airport:

Trip Planner

Search our weather history database for the weather conditions in past years. The results will help you decide how hot, cold, wet, or windy it might be!

Date:

Astronomy

Jul. 26, 2014 Rise Set
Actual Time 6:43 AM CDT 8:44 PM CDT
Civil Twilight 6:14 AM CDT 9:12 PM CDT
Nautical Twilight 5:40 AM CDT 9:46 PM CDT
Astronomical Twilight 5:04 AM CDT 10:22 PM CDT
Moon 6:34 AM CDT (7/26) 8:23 PM CDT (7/26)
Length of Visible Light 14h 57m
Length of Day
14h 01m
Waning Crescent, 0% of the Moon is Illuminated
Jul 26
Waning Crescent
Jul 26
New
Aug 3
First Quarter
Aug 10
Full
Aug 17
Last Quarter

Hourly Weather History & Observations

Time (CDT) Temp. Heat Index Dew Point Humidity Pressure Visibility Wind Dir Wind Speed Gust Speed Precip Events Conditions
12:15 AM 86.4 °F 84.7 °F 54.9 °F 34% 29.93 in 10.0 mi South 11.5 mph - N/A   Clear
12:35 AM 86.0 °F 84.7 °F 56.3 °F 36% 29.93 in 10.0 mi South 11.5 mph - N/A   Clear
12:55 AM 86.2 °F 85.0 °F 57.4 °F 37% 29.93 in 10.0 mi South 12.7 mph 16.1 mph N/A   Clear
1:15 AM 86.0 °F 85.0 °F 57.7 °F 38% 29.94 in 10.0 mi South 10.4 mph - N/A   Clear
1:35 AM 80.8 °F 81.3 °F 59.2 °F 48% 29.94 in 10.0 mi ESE 6.9 mph - N/A   Clear
1:55 AM 75.9 °F - 59.9 °F 57% 29.94 in 10.0 mi ESE 6.9 mph - N/A   Clear
2:15 AM 77.7 °F - 59.9 °F 54% 29.94 in 10.0 mi SE 4.6 mph - N/A   Clear
2:35 AM 76.1 °F - 60.4 °F 58% 29.93 in 10.0 mi ESE 6.9 mph - N/A   Clear
2:55 AM 74.8 °F - 60.8 °F 62% 29.94 in 10.0 mi East 5.8 mph - N/A   Clear
3:15 AM 73.6 °F - 60.8 °F 64% 29.94 in 10.0 mi ESE 5.8 mph - N/A   Clear
3:35 AM 73.8 °F - 61.0 °F 64% 29.94 in 10.0 mi ESE 6.9 mph - N/A   Clear
3:55 AM 73.9 °F - 61.3 °F 65% 29.94 in 10.0 mi ESE 5.8 mph - N/A   Clear
4:15 AM 73.4 °F - 61.7 °F 67% 29.94 in 10.0 mi East 6.9 mph - N/A   Clear
4:35 AM 73.0 °F - 61.7 °F 67% 29.95 in 10.0 mi East 6.9 mph - N/A   Clear
4:55 AM 73.2 °F - 61.9 °F 68% 29.95 in 10.0 mi East 6.9 mph - N/A   Clear
5:15 AM 73.0 °F - 62.6 °F 70% 29.95 in 10.0 mi ESE 8.1 mph - N/A   Clear
5:35 AM 73.0 °F - 62.8 °F 70% 29.95 in 10.0 mi ESE 5.8 mph - N/A   Clear
5:55 AM 72.0 °F - 63.1 °F 74% 29.96 in 10.0 mi SE 5.8 mph - N/A   Clear
6:15 AM 71.8 °F - 63.3 °F 75% 29.96 in 10.0 mi SE 6.9 mph - N/A   Clear
6:35 AM 71.8 °F - 63.7 °F 76% 29.96 in 10.0 mi SE 6.9 mph - N/A   Clear
6:55 AM 73.4 °F - 64.4 °F 73% 29.96 in 10.0 mi SE 5.8 mph - N/A   Clear
7:15 AM 74.7 °F - 64.8 °F 71% 29.97 in 10.0 mi SSE 8.1 mph - N/A   Clear
7:35 AM 76.1 °F - 65.3 °F 69% 29.97 in 10.0 mi SE 6.9 mph - N/A   Clear
7:55 AM 77.4 °F - 65.3 °F 66% 29.98 in 10.0 mi SE 6.9 mph - N/A   Clear
8:15 AM 78.8 °F - 66.0 °F 65% 29.98 in 10.0 mi South 6.9 mph - N/A   Clear
8:35 AM 80.8 °F 82.6 °F 65.1 °F 59% 29.98 in 10.0 mi South 11.5 mph - N/A   Clear
8:55 AM 82.0 °F 83.9 °F 65.3 °F 57% 29.98 in 10.0 mi South 12.7 mph - N/A   Clear
9:15 AM 83.3 °F 85.5 °F 66.0 °F 56% 29.99 in 10.0 mi SSW 11.5 mph - N/A   Clear
10:35 AM 90.5 °F 91.4 °F 63.3 °F 40% 29.99 in 10.0 mi SW 9.2 mph - N/A   Clear
10:55 AM 91.4 °F 92.4 °F 63.0 °F 39% 29.99 in 10.0 mi WSW 9.2 mph - N/A   Clear
11:35 AM 94.1 °F 95.5 °F 63.5 °F 36% 29.99 in 10.0 mi SSW 15.0 mph 20.7 mph N/A   Clear
12:55 PM 97.3 °F 98.9 °F 62.6 °F 32% 29.97 in 10.0 mi SSW 12.7 mph - N/A   Clear
1:15 PM 98.2 °F 99.9 °F 62.4 °F 31% 29.96 in 10.0 mi SSW 12.7 mph 19.6 mph N/A   Clear
1:35 PM 99.1 °F 100.3 °F 61.9 °F 29% 29.96 in 10.0 mi South 12.7 mph 17.3 mph N/A   Clear
1:55 PM 99.5 °F 99.9 °F 59.9 °F 27% 29.95 in 10.0 mi SSW 13.8 mph 20.7 mph N/A   Clear
2:15 PM 99.7 °F 100.1 °F 59.9 °F 27% 29.95 in 10.0 mi SSW 12.7 mph 19.6 mph N/A   Clear
2:35 PM 100.4 °F 100.2 °F 58.5 °F 25% 29.94 in 10.0 mi South 19.6 mph - N/A   Clear
2:55 PM 100.4 °F 100.2 °F 58.3 °F 25% 29.94 in 5.0 mi SSW 17.3 mph 21.9 mph N/A   Haze
3:15 PM 100.8 °F 100.8 °F 58.6 °F 25% 29.93 in 7.0 mi South 16.1 mph 21.9 mph N/A   Clear
3:35 PM 101.3 °F 101.1 °F 58.3 °F 24% 29.93 in 10.0 mi South 15.0 mph 19.6 mph N/A   Clear
3:55 PM 101.5 °F 101.3 °F 58.8 °F 24% 29.92 in 10.0 mi South 16.1 mph 20.7 mph N/A   Clear
4:15 PM 101.3 °F 101.1 °F 58.5 °F 24% 29.92 in 10.0 mi South 15.0 mph - N/A   Clear
4:35 PM 101.8 °F 101.4 °F 57.2 °F 23% 29.91 in 10.0 mi SSW 15.0 mph 19.6 mph N/A   Clear
4:55 PM 101.7 °F 101.6 °F 58.8 °F 24% 29.90 in 10.0 mi South 15.0 mph 19.6 mph N/A   Clear
5:15 PM 101.7 °F 101.1 °F 57.2 °F 23% 29.90 in 10.0 mi South 13.8 mph - N/A   Clear
5:35 PM 101.7 °F 101.6 °F 58.1 °F 24% 29.90 in 10.0 mi South 12.7 mph 18.4 mph N/A   Clear
5:55 PM 101.5 °F 100.8 °F 57.6 °F 23% 29.89 in 10.0 mi SSW 11.5 mph - N/A   Clear
6:15 PM 101.3 °F 100.6 °F 56.5 °F 23% 29.89 in 10.0 mi South 13.8 mph 19.6 mph N/A   Clear
6:35 PM 100.8 °F 99.8 °F 57.2 °F 23% 29.89 in 10.0 mi South 13.8 mph - N/A   Clear
6:55 PM 100.6 °F 99.5 °F 57.0 °F 23% 29.89 in 10.0 mi South 13.8 mph 18.4 mph N/A   Clear
7:15 PM 99.7 °F 99.6 °F 59.2 °F 26% 29.89 in 10.0 mi SSE 10.4 mph - N/A   Clear
7:35 PM 98.2 °F 97.9 °F 58.8 °F 27% 29.90 in 10.0 mi SSE 10.4 mph - N/A   Clear
7:55 PM 97.0 °F 96.9 °F 59.4 °F 29% 29.90 in 10.0 mi SSE 11.5 mph - N/A   Clear
8:15 PM 95.5 °F 95.2 °F 59.4 °F 30% 29.90 in 10.0 mi SSE 9.2 mph - N/A   Clear
8:35 PM 93.4 °F 92.8 °F 59.0 °F 32% 29.91 in 10.0 mi SSE 9.2 mph - N/A   Clear
8:55 PM 91.4 °F 90.7 °F 59.0 °F 34% 29.91 in 10.0 mi SSE 9.2 mph - N/A   Clear
9:15 PM 90.3 °F 89.3 °F 58.6 °F 34% 29.92 in 10.0 mi SSE 9.2 mph - N/A   Clear
9:35 PM 88.9 °F 88.3 °F 59.2 °F 37% 29.93 in 10.0 mi SSE 9.2 mph - N/A   Clear
9:55 PM 87.8 °F 87.1 °F 59.2 °F 38% 29.93 in 10.0 mi SSE 9.2 mph - N/A   Clear
10:15 PM 87.8 °F 87.6 °F 60.4 °F 40% 29.94 in 10.0 mi SE 12.7 mph - N/A   Clear
10:35 PM 86.9 °F 87.2 °F 61.9 °F 43% 29.95 in 10.0 mi SE 10.4 mph - N/A   Clear
10:55 PM 85.6 °F 86.3 °F 62.8 °F 46% 29.96 in 10.0 mi SE 9.2 mph - N/A   Clear
11:15 PM 84.9 °F 85.9 °F 63.5 °F 48% 29.96 in 10.0 mi SE 8.1 mph - N/A   Clear
11:35 PM 83.5 °F 84.7 °F 63.7 °F 51% 29.96 in 10.0 mi ESE 8.1 mph - N/A   Clear
11:55 PM 82.8 °F 84.2 °F 64.0 °F 53% 29.96 in 10.0 mi ESE 9.2 mph - N/A   Clear